Weather History for Shanghai Hongqiao, SH

Change the Weather History Date:

Sunday, June 2, 2013

  Actual Average Record
Temperature  
Mean Temperature 70 °F -  
Max Temperature 75 °F 82 °F 89 °F (2005)
Min Temperature 66 °F 70 °F 62 °F (2006)
Cooling Degree Days 6    
Growing Degree Days 20 (Base 50)    
Moisture  
Dew Point 58 °F    
Average Humidity 68    
Maximum Humidity 88    
Minimum Humidity 41    
Precipitation  
Precipitation 0.00 in 0.20 in - ()
Sea Level Pressure  
Sea Level Pressure 29.77 in    
Wind  
Wind Speed 6 mph ()    
Max Wind Speed 11 mph    
Max Gust Speed 18 mph    
Visibility 6.0 miles    
Events Rain    
Averages and records for this station are not official NWS values.
T = Trace of Precipitation, MM = Missing Value Source: Averaged Metar Reports

Daily Weather History Graph

Daily Weather History Graph

Search for Another Location

Airport:

Trip Planner

Search our weather history database for the weather conditions in past years. The results will help you decide how hot, cold, wet, or windy it might be!

Date:

Astronomy

Jun. 02, 2013 Rise Set
Actual Time 4:51 AM CST 6:54 PM CST
Civil Twilight 4:23 AM CST 7:21 PM CST
Nautical Twilight 3:50 AM CST 7:55 PM CST
Astronomical Twilight 3:14 AM CST 8:31 PM CST
Moon 12:37 AM CST (6/2) 1:09 PM CST (6/2)
Length of Visible Light 14h 58m
Length of Day
14h 03m
Waning Crescent, 36% of the Moon is Illuminated
Jun 2
Waning Crescent
Jun 8
New
Jun 17
First Quarter
Jun 23
Full
Jun 30
Last Quarter

Hourly Weather History & Observations

Time (CST) Temp. Dew Point Humidity Pressure Visibility Wind Dir Wind Speed Gust Speed Precip Events Conditions
12:00 AM 66.2 °F 62.6 °F 88% 29.74 in 4.3 mi NE 8.9 mph - N/A Rain Light Rain
12:30 AM 66.2 °F 62.6 °F 88% 29.74 in 4.3 mi ENE 6.7 mph - N/A Rain Light Rain
1:00 AM 66.2 °F 62.6 °F 88% 29.74 in 6.2 mi ENE 4.5 mph - N/A Rain Light Rain
1:30 AM 66.2 °F 60.8 °F 83% 29.74 in 6.2 mi NE 6.7 mph - N/A   Overcast
2:00 AM 66.2 °F 60.8 °F 83% 29.74 in 6.2 mi ENE 8.9 mph - N/A   Overcast
2:30 AM 66.2 °F 60.8 °F 83% 29.74 in 6.2 mi NE 6.7 mph - N/A   Overcast
3:00 AM 66.2 °F 60.8 °F 83% 29.74 in 6.2 mi NNE 4.5 mph - N/A   Overcast
3:30 AM 66.2 °F 60.8 °F 83% 29.74 in 6.2 mi NNE 6.7 mph - N/A   Overcast
4:00 AM 66.2 °F 62.6 °F 88% 29.74 in 6.2 mi NNE 8.9 mph - N/A   Overcast
4:30 AM 66.2 °F 62.6 °F 88% 29.74 in 6.2 mi NNE 6.7 mph - N/A   Overcast
5:00 AM 66.2 °F 62.6 °F 88% 29.77 in 6.2 mi NE 8.9 mph - N/A   Overcast
5:30 AM 66.2 °F 60.8 °F 83% 29.77 in 6.2 mi ENE 6.7 mph - N/A   Overcast
6:00 AM 66.2 °F 60.8 °F 83% 29.77 in 6.2 mi NE 8.9 mph - N/A   Mostly Cloudy
6:30 AM 66.2 °F 60.8 °F 83% 29.77 in 6.2 mi NE 11.2 mph - N/A   Mostly Cloudy
7:00 AM 66.2 °F 60.8 °F 83% 29.77 in 6.2 mi NE 11.2 mph - N/A   Mostly Cloudy
7:30 AM 66.2 °F 60.8 °F 83% 29.77 in 6.2 mi NE 8.9 mph - N/A   Mostly Cloudy
8:00 AM 66.2 °F 60.8 °F 83% 29.80 in 6.2 mi NNE 8.9 mph - N/A   Mostly Cloudy
8:30 AM 66.2 °F 59.0 °F 78% 29.80 in 6.2 mi NE 11.2 mph - N/A   Mostly Cloudy
9:00 AM 68.0 °F 60.8 °F 78% 29.80 in 6.2 mi ENE 6.7 mph - N/A   Scattered Clouds
9:30 AM 68.0 °F 59.0 °F 73% 29.80 in 6.2 mi ENE 6.7 mph - N/A   Scattered Clouds
10:00 AM 68.0 °F 59.0 °F 73% 29.80 in - ESE 4.5 mph - N/A   Clear
10:30 AM 69.8 °F 57.2 °F 64% 29.80 in - ENE 6.7 mph - N/A   Clear
11:00 AM 69.8 °F 55.4 °F 60% 29.80 in - ENE 6.7 mph 17.9 mph N/A   Clear
11:30 AM 71.6 °F 57.2 °F 60% 29.77 in - East 6.7 mph - N/A   Clear
12:00 PM 71.6 °F 57.2 °F 60% 29.77 in - NE 6.7 mph - N/A   Clear
12:30 PM 71.6 °F 55.4 °F 57% 29.77 in - East 4.5 mph 15.7 mph N/A   Clear
1:00 PM 71.6 °F 55.4 °F 57% 29.77 in - ENE 4.5 mph - N/A   Clear
1:30 PM 73.4 °F 55.4 °F 53% 29.77 in - NNE 4.5 mph - N/A   Clear
2:00 PM 75.2 °F 51.8 °F 44% 29.77 in - ENE 6.7 mph - N/A   Clear
2:30 PM 73.4 °F 55.4 °F 53% 29.77 in - North 6.7 mph - N/A   Clear
3:00 PM 75.2 °F 53.6 °F 47% 29.77 in - NE 6.7 mph - N/A   Clear
3:30 PM 75.2 °F 51.8 °F 44% 29.77 in - ENE 6.7 mph - N/A   Clear
4:00 PM 73.4 °F 51.8 °F 47% 29.74 in - NE 4.5 mph - N/A   Clear
4:30 PM 75.2 °F 50.0 °F 41% 29.74 in - Variable 4.5 mph - N/A   Clear
5:00 PM 75.2 °F 51.8 °F 44% 29.74 in - Variable 4.5 mph - N/A   Clear
5:30 PM 75.2 °F 53.6 °F 47% 29.74 in - Variable 2.2 mph - N/A   Clear
6:00 PM 73.4 °F 51.8 °F 47% 29.74 in - SE 4.5 mph - N/A   Clear
6:30 PM 73.4 °F 51.8 °F 47% 29.77 in - SE 4.5 mph - N/A   Clear
7:00 PM 73.4 °F 53.6 °F 50% 29.77 in - SSE 4.5 mph - N/A   Clear
7:30 PM 71.6 °F 53.6 °F 53% 29.77 in - SE 4.5 mph - N/A   Clear
8:00 PM 71.6 °F 55.4 °F 57% 29.80 in - SSE 4.5 mph - N/A   Clear
8:30 PM 71.6 °F 55.4 °F 57% 29.80 in - SSE 4.5 mph - N/A   Clear
9:00 PM 69.8 °F 55.4 °F 60% 29.80 in - SE 4.5 mph - N/A   Clear
9:30 PM 69.8 °F 59.0 °F 68% 29.80 in - SE 6.7 mph - N/A   Clear
10:00 PM 68.0 °F 60.8 °F 78% 29.80 in - SE 6.7 mph - N/A   Clear
10:30 PM 68.0 °F 59.0 °F 73% 29.80 in - ESE 6.7 mph - N/A   Clear
11:00 PM 68.0 °F 60.8 °F 78% 29.80 in - East 4.5 mph - N/A   Clear
11:30 PM 66.2 °F 60.8 °F 83% 29.83 in - ESE 4.5 mph - N/A   Clear